Starlink 1277

operational
NORAD ID: 45369 Int'l Des: 2020-019 Owner: SPXS Country: US Constellation: starlink
LEOCIRCULARSTARLINK_TYPE

Starlink 1277について

説明を読み込み中...

リアルタイム位置

3D地球を読み込み中...

次回通過

高度履歴

Altitude vs Time

uPlot chart will show altitude changes over time

軌道要素

1 45369U 20019K 25257.32730116 .00002061 00000-0 15715-3 0 9994
2 45369 53.0523 238.9699 0001585 85.1650 274.9520 15.06409337303145
Epoch: Sep 14, 2025 • Age: 30 hours

現在のステータス

高度 559.1 km
速度 7.58 km/s
衛星直下点 -35.01°S, 1.64°W
打ち上げ日 Mar 18, 2020
運用期間 5.4 years
タイプ internet

技術仕様

分類 Payload
質量 260.00 kg
乾燥質量 248.00 kg
総質量 260.00 kg
長さ 0.20 m
直径 2.80 m
スパン 9.00 m
形状 Box + pan
製造者 SPXS
バスタイプ Starlink
フェーズステータス In Orbit
所有者/国 SPXS/US

大規模コンステレーション

Loading constellations...